TIANMU-1 03

Last updated on Tue Sep 16 2025 00:02:22 GMT+0000 (Coordinated Universal Time)

1 55973U 23039A 25258.59769891 .00014334 00000+0 39325-3 0 9991 2 55973 97.5096 59.0434 0003776 24.9273 335.2153 15.37373590138504
UTC large
Height (km)
Speed (km/s)
/
Latitude / Longitude
Inclination (degrees)
Orbital Period (minutes)
Azimuth
Elevation
Range (km)
Doppler Factor

Next 0 passes for location: London (51.5072 / 0.1276)

Sorry there are no passes over London.